User: anonymous   Login
Location: Bellerive
(46.9237°N, 7.0223°E)
Time: 17:17:39
(UTC+00:00)
Language:

Cosmos 1461 - Orbit

View from above orbital plane
View from above orbital plane
View from above satellite
View from above satellite

Ground track
Ground track

The orbit data is extracted from the following two-line orbital elements,

1 14064U 83044A   20195.98008273  .00000078  00000-0  21191-4 0  9991
2 14064  65.0008  47.4764 0113624 312.9403  46.2222 14.94746637891116
Epoch (UTC): 13 July 2020 23:31:19
Eccentricity: 0.0113624
inclination: 65.0008°
perigee height: 504 km
apogee height: 662 km
right ascension of ascending node: 47.4764°
argument of perigee: 312.9403°
revolutions per day: 14.94746637
mean anomaly at epoch: 46.2222°
orbit number at epoch: 89111

The dashed part of the orbit path shows where the satellite is in the earth's shadow,  

DLR